When you browse on this site, cookies collect data to enhance your experience and personalize the content and advertising you see.
Visit our Privacy Policy to learn more. By continuing to use the site, you agree to this use of cookies and data.
  • In Latvia
  • List of Countries
  • For 7 days
  • Water Temperature
  • Satellite Maps
  • Weather Map
  • Weather Widgets
  • user-avatar
    Login

    Hourly Weather Ghadamis

    Today, 18 June, Tuesday

    Time Temperature Precipitation Wind Pressure Humidity
    00:00 +37°C° 0 mm 2 mps 727 mmHg 7%
    01:00 +34°C° 0 mm 1 mps 727 mmHg 10%
    02:00 +35°C° 0 mm 2 mps 727 mmHg 11%
    03:00 +35°C° 0 mm 2 mps 727 mmHg 12%
    04:00 +34°C° 0 mm 2 mps 727 mmHg 13%
    05:00 +34°C° 0 mm 3 mps 727 mmHg 17%
    06:00 +33°C° 0 mm 4 mps 728 mmHg 21%
    07:00 +33°C° 0 mm 5 mps 728 mmHg 25%
    08:00 +34°C° 0 mm 6 mps 728 mmHg 23%
    09:00 +35°C° 0 mm 6 mps 729 mmHg 22%
    10:00 +36°C° 0 mm 7 mps 729 mmHg 21%
    11:00 +39°C° 0 mm 6 mps 729 mmHg 18%
    12:00 +40°C° 0 mm 6 mps 729 mmHg 16%
    13:00 +42°C° 0 mm 5 mps 729 mmHg 14%
    14:00 +44°C° 0 mm 6 mps 729 mmHg 13%
    15:00 +44°C° 0 mm 7 mps 729 mmHg 12%
    16:00 +45°C° 0 mm 7 mps 729 mmHg 10%
    17:00 +44°C° 0 mm 7 mps 729 mmHg 11%
    18:00 +43°C° 0 mm 7 mps 729 mmHg 12%
    19:00 +41°C° 0 mm 7 mps 729 mmHg 13%
    20:00 +40°C° 0 mm 8 mps 730 mmHg 19%
    21:00 +38°C° 0 mm 9 mps 730 mmHg 25%
    22:00 +36°C° 0 mm 10 mps 731 mmHg 31%
    23:00 +34°C° 0 mm 8 mps 731 mmHg 32%

    Tomorrow, 19 June, Wednesday

    Time Temperature Precipitation Wind Pressure Humidity
    00:00 +34°C° 0 mm 7 mps 731 mmHg 33%
    01:00 +33°C° 0 mm 6 mps 731 mmHg 33%
    02:00 +32°C° 0 mm 5 mps 731 mmHg 34%
    03:00 +32°C° 0 mm 4 mps 731 mmHg 34%
    04:00 +30°C° 0 mm 4 mps 731 mmHg 34%
    05:00 +32°C° 0 mm 4 mps 731 mmHg 32%
    06:00 +32°C° 0 mm 4 mps 732 mmHg 29%
    07:00 +32°C° 0 mm 4 mps 732 mmHg 26%
    08:00 +34°C° 0 mm 4 mps 732 mmHg 23%
    09:00 +36°C° 0 mm 4 mps 732 mmHg 20%
    10:00 +38°C° 0 mm 4 mps 732 mmHg 17%
    11:00 +40°C° 0 mm 4 mps 732 mmHg 15%
    12:00 +41°C° 0 mm 4 mps 732 mmHg 13%
    13:00 +42°C° 0 mm 4 mps 732 mmHg 12%
    14:00 +43°C° 0 mm 4 mps 731 mmHg 11%
    15:00 +43°C° 0 mm 4 mps 731 mmHg 10%
    16:00 +43°C° 0 mm 4 mps 730 mmHg 9%
    17:00 +43°C° 0 mm 4 mps 731 mmHg 10%
    18:00 +42°C° 0 mm 4 mps 731 mmHg 10%
    19:00 +42°C° 0 mm 3 mps 731 mmHg 11%
    20:00 +41°C° 0 mm 4 mps 731 mmHg 12%
    21:00 +40°C° 0 mm 4 mps 731 mmHg 12%
    22:00 +39°C° 0 mm 5 mps 732 mmHg 13%
    23:00 +37°C° 0 mm 5 mps 732 mmHg 15%

    Day after tomorrow, 20 June, Thursday

    Time Temperature Precipitation Wind Pressure Humidity
    00:00 +36°C° 0 mm 5 mps 732 mmHg 17%
    01:00 +35°C° 0 mm 6 mps 732 mmHg 19%
    02:00 +34°C° 0 mm 6 mps 731 mmHg 20%
    03:00 +34°C° 0 mm 6 mps 731 mmHg 20%
    04:00 +33°C° 0 mm 5 mps 731 mmHg 20%
    05:00 +33°C° 0 mm 5 mps 731 mmHg 19%
    06:00 +34°C° 0 mm 5 mps 732 mmHg 19%
    07:00 +34°C° 0 mm 5 mps 732 mmHg 18%
    08:00 +36°C° 0 mm 5 mps 732 mmHg 16%
    09:00 +39°C° 0 mm 5 mps 732 mmHg 14%
    10:00 +41°C° 0 mm 5 mps 733 mmHg 11%
    11:00 +42°C° 0 mm 5 mps 732 mmHg 11%
    12:00 +43°C° 0 mm 5 mps 732 mmHg 11%
    13:00 +45°C° 0 mm 5 mps 732 mmHg 10%
    14:00 +46°C° 0 mm 5 mps 731 mmHg 10%
    15:00 +46°C° 0 mm 5 mps 731 mmHg 9%
    16:00 +46°C° 0 mm 5 mps 730 mmHg 9%
    17:00 +45°C° 0 mm 4 mps 730 mmHg 9%
    18:00 +44°C° 0 mm 4 mps 730 mmHg 10%
    19:00 +43°C° 0 mm 4 mps 730 mmHg 10%
    20:00 +42°C° 0 mm 4 mps 731 mmHg 11%
    21:00 +41°C° 0 mm 4 mps 731 mmHg 12%
    22:00 +40°C° 0 mm 4 mps 731 mmHg 13%
    23:00 +38°C° 0 mm 4 mps 731 mmHg 14%

    21 June, Friday

    Time Temperature Precipitation Wind Pressure Humidity
    00:00 +39°C° 0 mm 5 mps 731 mmHg 15%
    01:00 +38°C° 0 mm 6 mps 731 mmHg 16%
    02:00 +36°C° 0 mm 6 mps 731 mmHg 17%
    03:00 +35°C° 0 mm 6 mps 731 mmHg 18%
    04:00 +35°C° 0 mm 6 mps 731 mmHg 18%
    05:00 +35°C° 0 mm 6 mps 731 mmHg 17%
    06:00 +35°C° 0 mm 6 mps 731 mmHg 17%
    07:00 +35°C° 0 mm 5 mps 732 mmHg 16%
    08:00 +37°C° 0 mm 5 mps 732 mmHg 14%
    09:00 +40°C° 0 mm 5 mps 732 mmHg 13%
    10:00 +42°C° 0 mm 5 mps 732 mmHg 11%
    11:00 +43°C° 0 mm 5 mps 732 mmHg 11%
    12:00 +45°C° 0 mm 5 mps 732 mmHg 10%
    13:00 +46°C° 0 mm 6 mps 731 mmHg 9%
    14:00 +47°C° 0 mm 6 mps 731 mmHg 8%
    15:00 +47°C° 0 mm 6 mps 730 mmHg 8%
    16:00 +47°C° 0 mm 6 mps 730 mmHg 7%
    17:00 +46°C° 0 mm 5 mps 730 mmHg 8%
    18:00 +46°C° 0 mm 5 mps 730 mmHg 8%
    19:00 +44°C° 0 mm 4 mps 730 mmHg 9%
    20:00 +43°C° 0 mm 5 mps 730 mmHg 10%
    21:00 +42°C° 0 mm 5 mps 730 mmHg 11%
    22:00 +40°C° 0 mm 5 mps 731 mmHg 12%
    23:00 +40°C° 0 mm 6 mps 731 mmHg 13%

    22 June, Saturday

    Time Temperature Precipitation Wind Pressure Humidity
    00:00 +39°C° 0 mm 6 mps 731 mmHg 13%
    01:00 +38°C° 0 mm 6 mps 731 mmHg 14%
    02:00 +36°C° 0 mm 6 mps 730 mmHg 15%
    03:00 +35°C° 0 mm 6 mps 730 mmHg 15%
    04:00 +34°C° 0 mm 5 mps 730 mmHg 16%
    05:00 +34°C° 0 mm 6 mps 731 mmHg 15%
    06:00 +34°C° 0 mm 6 mps 731 mmHg 14%
    07:00 +34°C° 0 mm 6 mps 731 mmHg 12%
    08:00 +36°C° 0 mm 7 mps 732 mmHg 12%
    09:00 +39°C° 0 mm 7 mps 732 mmHg 11%
    10:00 +41°C° 0 mm 8 mps 732 mmHg 10%
    11:00 +43°C° 0 mm 8 mps 732 mmHg 9%
    12:00 +45°C° 0 mm 8 mps 731 mmHg 8%
    13:00 +46°C° 0 mm 7 mps 731 mmHg 7%
    14:00 +47°C° 0 mm 7 mps 731 mmHg 6%
    15:00 +47°C° 0 mm 7 mps 730 mmHg 6%
    16:00 +47°C° 0 mm 7 mps 730 mmHg 5%
    17:00 +46°C° 0 mm 7 mps 730 mmHg 6%
    18:00 +45°C° 0 mm 6 mps 730 mmHg 6%
    19:00 +44°C° 0 mm 6 mps 730 mmHg 7%
    20:00 +42°C° 0 mm 6 mps 730 mmHg 7%
    21:00 +41°C° 0 mm 6 mps 731 mmHg 8%
    22:00 +40°C° 0 mm 7 mps 731 mmHg 9%
    23:00 +39°C° 0 mm 7 mps 731 mmHg 10%

    23 June, Sunday

    Time Temperature Precipitation Wind Pressure Humidity
    00:00 +38°C° 0 mm 8 mps 731 mmHg 11%
    01:00 +37°C° 0 mm 8 mps 731 mmHg 11%
    02:00 +35°C° 0 mm 8 mps 731 mmHg 13%
    03:00 +34°C° 0 mm 7 mps 731 mmHg 15%
    04:00 +33°C° 0 mm 6 mps 731 mmHg 17%
    05:00 +33°C° 0 mm 6 mps 732 mmHg 18%
    06:00 +33°C° 0 mm 6 mps 732 mmHg 19%
    07:00 +33°C° 0 mm 6 mps 733 mmHg 20%
    08:00 +35°C° 0 mm 7 mps 733 mmHg 18%
    09:00 +38°C° 0 mm 7 mps 733 mmHg 16%
    10:00 +40°C° 0 mm 8 mps 733 mmHg 14%
    11:00 +43°C° 0 mm 8 mps 733 mmHg 12%
    12:00 +44°C° 0 mm 7 mps 733 mmHg 10%
    13:00 +45°C° 0 mm 7 mps 732 mmHg 9%
    14:00 +46°C° 0 mm 8 mps 732 mmHg 8%
    15:00 +46°C° 0 mm 8 mps 732 mmHg 7%
    16:00 +48°C° 0 mm 8 mps 731 mmHg 7%
    17:00 +46°C° 0 mm 7 mps 731 mmHg 7%
    18:00 +45°C° 0 mm 7 mps 731 mmHg 7%
    19:00 +44°C° 0 mm 6 mps 731 mmHg 8%
    20:00 +42°C° 0 mm 6 mps 732 mmHg 9%
    21:00 +40°C° 0 mm 6 mps 732 mmHg 10%
    22:00 +39°C° 0 mm 7 mps 733 mmHg 11%
    23:00 +38°C° 0 mm 7 mps 733 mmHg 13%
    Show more